Location: Unspecified
(0.0000°N, 0.0000°E)
Time: 15:33:33
(UTC+02:00)

Meteor 2-8 Rocket - Visible Passes

Search period start: 17 September 2014 00:00
Search period end: 27 September 2014 00:00
Orbit: 936 x 959 km, 82.5° (Epoch: 16 September)

Date Brightness Start Highest point End Pass type
(mag) Time Alt. Az. Time Alt. Az. Time Alt. Az.
17 Sep 4.5 20:32:48 10° S 20:38:47 56° E 20:44:42 10° NNE visible
18 Sep 4.5 20:49:34 10° S 20:55:41 81° W 21:01:45 10° N visible
19 Sep 5.6 21:06:50 10° SSW 21:12:36 44° W 21:18:19 10° NNW visible
20 Sep 6.7 21:24:42 10° SW 21:29:30 24° W 21:34:16 10° NW visible
21 Sep 7.5 21:43:53 10° WSW 21:46:24 13° W 21:48:55 10° WNW visible
22 Sep 7.6 07:14:20 10° NE 07:17:58 16° E 07:21:35 10° ESE visible
22 Sep 4.4 20:12:42 10° S 20:18:49 83° E 20:24:52 10° N visible
23 Sep 5.3 20:29:47 10° SSW 20:35:44 55° W 20:41:37 10° N visible
24 Sep 6.5 20:47:25 10° SW 20:52:38 30° W 20:57:49 10° NNW visible
25 Sep 7.4 21:05:56 10° WSW 21:09:32 16° W 21:13:07 10° NW visible
26 Sep 7.7 06:38:32 10° ENE 06:41:06 13° E 06:43:40 10° ESE visible
